Location: Caixon
(43.4106°N, 0.0273°E)
Time: 22:51:33
(UTC+00:00)

Cosmos 1908 - Pass Details

Date: 16 October 2021
Orbit: 509 x 528 km, 82.5° (Epoch: 07 December)

Event Time Altitude Azimuth Distance (km) Brightness Sun altitude
Rises 05:22:51 0° 354° (N) 2,647 6.7 -10.2°
Reaches altitude 10° 05:25:01 10° 357° (N) 1,751 5.8 -9.9°
Maximum altitude 05:28:50 67° 80° (E) 559 3.6 -9.2°
Drops below altitude 10° 05:32:36 10° 164° (SSE) 1,727 6.1 -8.5°
Sets 05:34:43 0° 167° (SSE) 2,606 7.0 -8.1°
